STARLINK-37804, 69302

Orbit data source: Space-Track

STARLINK-37804, 69302 is a payload satellite owned by SpaceX/Seattle (US) in SSO that was launched on Sat, 30 May 2026 UTC via an FALCON 9 launch vehicle from the Air Force Western Test Range (AFWTR). Payload-class satellites include a variety of spacecraft equipped with specific instruments for various scientific and technological missions. These include communications satellites like Starlink; space stations such as the ISS; scientific satellites like the Hubble; Earth observation satellites from companies like Planet Labs, Umbra, and HawkEye 360; GPS; miniature CubeSats for education and research; and military/defense satellites.

Loading next visibility...
Identifier
69302, 2026-119G
Orbit
SSO
Country
Flag of USUS
Related business
Manufacturer
SpaceX/Seattle
Mission
Operational spacecraft
Bus & Motor
STARLINK V2MO, Unknown motor
Mass
575 kg wet, ~530 kg dry
Launch date (UTC)
2026-05-30 (2 months ago)
Launch vehicle
FALCON 9
Launch site
Air Force Western Test Range (AFWTR)
Object type
Payload
Rocket body
Debris
Shape & HBR
Unknown shape, 17.7 m
Radar Cross Section
Large (>1 m²)

Expand to show TLE details & history
Last TLE update: 15 hours ago

TLE from 15 hours ago
0 STARLINK-37804
1 69302U 26119G   26202.04370296  .00014055  00000-0  43699-3 0  9991
2 69302  97.2845 227.6306 0002081 104.5542 255.5932 15.33435920  9246
Epoch: 2026-07-21T01:02Z
TLE epoch observation values (Epoch: 2026-07-21T01:02:55.935Z)
Latitude
-0.00001°
Longitude
-86.92152°
Altitude
469.037 km
Speed
7.631 km/s
True Right ascension
15h 10m 31s
True Declination
0° 00' 00"
Sunlit
Object was in daylight at epoch
Visualization orbit readout
Latitude
Unknown
Longitude
Unknown
Altitude
Unknown
Speed
Unknown
Apparent Right ascension
Unknown
Apparent Declination
Unknown
Sunlit
N/A
Visualization observer readout
Local Sidereal Time
05:27:54
Azimuth
Unknown
Elevation
Unknown
Doppler factor
Unknown
Orbital elements
Apogee altitude
463.936 km
Perigee altitude
461.089 km
Semi-major axis
6,840.65 km
Eccentricity
0.00021
Inclination
97.2845°
RAAN
227.6306°
Arg. of periapsis
104.5542°
True anomaly
255.5701°
Mean anomaly
255.5932°
Eccentric anomaly
255.58165°
Mean motion
3.83616 °/min
Orbital period
93.84 mins
BSTAR
0.00043699
Loading maneuver chart data...
Computing Atmospheric mass density...
Loading historical data...
Loading historical data...
Loading historical data...
Loading historical data...
Loading historical data...
Loading historical data...
Loading historical data...

Documentation

Showing up to 5 results
|